Powrót do katalogu

COSMOS 1275 DEB

AktywnyPO
NORAD 17793·DEBRIS·🇷🇺 Russia

Wystrzelony Jun 4, 1981 z Plesetsk Cosmodrome

Loading…

Następne Przeloty (najbliższe 24 godziny)

TLE

ŚwieżeSource: Space-Track

Epoka: Sep 13, 2026, 18:07 UTC

1 17793U 81053LP  26256.75532870  .00000519  00000-0  85373-3 0  9996
2 17793  83.1439  74.4513 0267997 285.1472  85.4151 13.32755302  9004

Śledź COSMOS 1275 DEB w czasie rzeczywistym z AllMySat

Download on the App Store